[[{"header":{"parameterUnit":"m.s-1","parameterCategory":2,"la1":30.2991,"la2":30.254,"lo1":-89.0895,"lo2":-89.0444,"dy":0.0017,"dx":0.0017,"nx":28,"ny":28,"refTime":"2025-09-03T21:00:00:Z","depth":"0","parameterNumber":2,"parameterNumberName":"U-component_of_CURRENTS"},"data":[0,0,0,0,0,0,0,0,0,0,0,0,0,0,0,0,0,0,0,0,0,0,0,0,0,0,0,0,0,0,0,0,0,0,0,0,0,0,0,0,0,0,0,0,0,0,0,0,0,0,0,0,0,0,0,0,0,0,0.382,0.3822,0,0.3924,0.3925,0.3925,0.3918,0.3917,0.3917,0.3916,0.389,0.389,0.3889,0,0,0,0,0,0,0,0,0,0,0,0,0,0.3762,0.3761,0.382,0.3822,0.3825,0.3924,0.3925,0.3925,0.3918,0.3917,0.3916,0.3916,0.389,0.389,0.3889,0,0,0,0,0,0,0,0,0,0,0,0,0,0.3808,0.3761,0.3819,0.3841,0.3845,0.3924,0.3925,0.3925,0.3918,0.3917,0.3916,0.3915,0.389,0.389,0.3889,0.3903,0,0,0.3888,0.3888,0,0,0,0,0,0,0,0,0.3805,0.3808,0.3836,0.384,0.3844,0.3917,0.3896,0.3915,0.3918,0.3878,0.3916,0.3915,0.3895,0.3894,0.3901,0.3902,0.39,0.3888,0.3888,0.3888,0.3888,0,0,0,0,0,0,0,0.3802,0.3805,0.385,0.3839,0.3844,0.3898,0.39,0.39,0.3878,0.3882,0.3884,0.3914,0.3894,0.3902,0.39,0.39,0.3888,0.3888,0.3888,0.3888,0.3993,0.3996,0,0,0,0,0,0,0.3804,0.3801,0.3847,0.3854,0.3835,0.3899,0.3902,0.3885,0.3881,0.3884,0.3915,0.3914,0.3902,0.3901,0.3899,0.3951,0.3888,0.3888,0.3887,0.399,0.3993,0.3997,0,0,0,0,0,0,0.3802,0.3805,0.3843,0.3842,0.3852,0.3901,0.3883,0.3888,0.3908,0.391,0.3908,0.3931,0.3902,0.39,0.3925,0.3948,0.3887,0.3887,0.3986,0.3991,0.3995,0.4031,0,0,0,0,0,0,0.3799,0.3802,0.3804,0.384,0.3852,0.3904,0.3885,0.3891,0.3932,0.3931,0.3924,0.392,0.3901,0.3926,0.3924,0.3947,0.3887,0.3982,0.3988,0.3994,0.4026,0.4036,0.4045,0,0,0,0,0,0.3795,0.381,0.3802,0.381,0.3846,0.3907,0.3917,0.3943,0.3934,0.3953,0.3954,0.3921,0.3961,0.3927,0.3925,0.3948,0.398,0.3987,0.3993,0.4022,0.4034,0.4044,0,0,0,0,0,0,0.3777,0.3813,0.3805,0.3823,0.3867,0.391,0.3939,0.3955,0.3972,0.3966,0.3948,0.3946,0.3988,0.3973,0.3937,0.4003,0.3969,0.3976,0.3992,0.4003,0.4012,0.3995,0.3887,0,0,0,0,0,0.3776,0.3805,0.3833,0.3858,0.3865,0.3899,0.3931,0.3951,0.3975,0.3982,0.3981,0.399,0.4015,0.4011,0.4033,0.4051,0.4072,0.4073,0.4082,0.409,0.4081,0.4144,0.4158,0.4019,0.4019,0.4019,0,0,0.3788,0.381,0.3829,0.3861,0.3879,0.3905,0.3912,0.3964,0.3995,0.3976,0.4005,0.4027,0.4036,0.4071,0.4086,0.4053,0.4153,0.4098,0.4104,0.409,0.4153,0.4166,0.4177,0.4023,0.4022,0.4022,0,0,0.3817,0.382,0.3839,0.3867,0.3916,0.394,0.3956,0.3997,0.4015,0.406,0.4066,0.4102,0.4122,0.4136,0.4144,0.422,0.4216,0.4236,0.424,0.4303,0.4314,0.4323,0.4407,0.4423,0.4219,0.422,0.422,0,0.3823,0.3835,0.3863,0.3876,0.3914,0.3948,0.3974,0.4002,0.4059,0.4081,0.4075,0.415,0.4153,0.4199,0.4224,0.4236,0.4279,0.4186,0.4312,0.4321,0.433,0.4413,0.443,0.4222,0.4222,0.4221,0.4221,0,0.3858,0.3863,0.3878,0.3898,0.3944,0.3984,0.4022,0.4063,0.4092,0.412,0.4189,0.421,0.4246,0.4267,0.4257,0.4331,0.4348,0.4329,0.427,0.4346,0.4429,0.4447,0.4226,0.4225,0.4224,0.4223,0,0,0.3874,0.3894,0.3897,0.39,0.3961,0.3998,0.4053,0.4111,0.4151,0.4194,0.425,0.4292,0.4304,0.4317,0.4328,0.4366,0.4478,0.4365,0.4367,0.4426,0.4643,0.4553,0.4563,0.4479,0.4481,0.4483,0.4688,0,0.3884,0.3892,0.3929,0.3966,0.3964,0.403,0.4085,0.415,0.4202,0.4263,0.4293,0.4354,0.4322,0.4356,0.4387,0.4468,0.4521,0.4426,0.4579,0.4584,0.4475,0.4578,0.4349,0.4502,0.4705,0.4708,0.4711,0,0.3896,0.3901,0.3911,0.3973,0.3984,0.403,0.4132,0.4191,0.4278,0.432,0.4367,0.4404,0.4474,0.4441,0.4579,0.4523,0.4581,0.4631,0.464,0.4543,0.4524,0.4456,0.4526,0.4393,0.4738,0.4735,0.4733,0,0.3863,0.39,0.3907,0.3924,0.3991,0.4036,0.4101,0.4199,0.4256,0.4359,0.4418,0.4491,0.4565,0.4627,0.471,0.4664,0.4873,0.4827,0.4806,0.4803,0.4628,0.4603,0.4557,0.4929,0.4929,0.4928,0.4928,0,0.3847,0.386,0.3886,0.3881,0.3943,0.4011,0.4094,0.4173,0.4279,0.4351,0.4433,0.4513,0.4617,0.4732,0.477,0.485,0.4928,0.4829,0.4847,0.464,0.4614,0.4503,0.4467,0.4936,0.4934,0.4933,0.4931,0,0.381,0.3807,0.3825,0.3883,0.3909,0.396,0.4082,0.414,0.4256,0.4361,0.4403,0.4575,0.4725,0.4826,0.4982,0.4946,0.4878,0.5032,0.479,0.4772,0.4552,0.4527,0.4383,0.4259,0.5029,0.5028,0.5027,0,0.3797,0.3784,0.3817,0.3833,0.3861,0.3934,0.3987,0.4106,0.417,0.4383,0.4431,0.4634,0.4725,0.4927,0.4919,0.499,0.4872,0.4833,0.4671,0.452,0.4508,0.4345,0.4239,0.4494,0.4489,0.4485,0.4482,0,0.3791,0.3789,0.3798,0.381,0.3846,0.3891,0.3975,0.4013,0.4162,0.4264,0.4412,0.4509,0.4683,0.4651,0.4756,0.4756,0.4559,0.4745,0.4646,0.413,0.3892,0.3787,0.4413,0.4444,0.4447,0.445,0.4452,0.4454,0.38,0.381,0.3792,0.3808,0.3832,0.3834,0.3831,0.3924,0.3999,0.4091,0.4275,0.4316,0.4395,0.4473,0.4464,0.4275,0.4297,0.4128,0.4138,0.4008,0.3768,0.4315,0.4312,0.4315,0.4317,0.4319,0.4321,0,0.3767,0.3768,0.3798,0.3769,0.3745,0.3777,0.3803,0.3761,0.3787,0.3887,0.3966,0.3952,0.3928,0.3958,0.3846,0.3685,0.3513,0.3601,0.3314,0.3263,0.3805,0.3656,0.3435,0.3435,0.3435,0.3435,0.3435,0.3435,0.3733,0.3718,0.372,0.3657,0.3646,0.3541,0.3515,0.3476,0.3483,0.3413,0.3354,0.3399,0.3533,0.3553,0.3366,0.3272,0.3022,0.2868,0.2925,0.3303,0.3351,0.3397,0.3244,0.2941,0.294,0.2183,0.2177,0.2173]},{"header":{"parameterUnit":"m.s-1","parameterCategory":2,"la1":30.2991,"la2":30.254,"lo1":-89.0895,"lo2":-89.0444,"dy":0.0017,"dx":0.0017,"nx":28,"ny":28,"refTime":"2025-09-03T21:00:00:Z","depth":"0","parameterNumber":3,"parameterNumberName":"V-component_of_CURRENTS"},"data":[0,0,0,0,0,0,0,0,0,0,0,0,0,0,0,0,0,0,0,0,0,0,0,0,0,0,0,0,0,0,0,0,0,0,0,0,0,0,0,0,0,0,0,0,0,0,0,0,0,0,0,0,0,0,0,0,0,0,-0.0002,-0.0002,0,-0.0082,-0.0083,-0.0084,-0.0121,-0.0121,-0.012,-0.012,-0.0187,-0.0189,-0.0191,0,0,0,0,0,0,0,0,0,0,0,0,0,0.0066,0.0065,-0.0001,-0.0002,-0.0003,-0.0081,-0.0083,-0.0084,-0.0121,-0.0121,-0.012,-0.012,-0.0186,-0.0189,-0.0191,0,0,0,0,0,0,0,0,0,0,0,0,0,0.0013,0.0064,-0.0001,-0.0028,-0.0031,-0.0081,-0.0083,-0.0085,-0.0121,-0.0121,-0.012,-0.012,-0.0185,-0.0188,-0.0192,-0.0222,0,0,-0.0201,-0.0203,0,0,0,0,0,0,0,0,0.0016,0.001,-0.0024,-0.0027,-0.003,-0.0088,-0.0084,-0.0129,-0.0121,-0.0091,-0.012,-0.012,-0.0151,-0.0157,-0.0178,-0.0225,-0.0228,-0.0202,-0.0203,-0.0205,-0.0206,0,0,0,0,0,0,0,0.002,0.0013,-0.0036,-0.0024,-0.0028,-0.0055,-0.0061,-0.0093,-0.0125,-0.0093,-0.0095,-0.0099,-0.0153,-0.0175,-0.018,-0.0229,-0.0201,-0.0204,-0.0206,-0.0207,-0.0332,-0.0334,0,0,0,0,0,0,0.0038,0.0017,-0.0034,-0.0039,-0.0001,-0.0056,-0.0064,-0.0073,-0.0125,-0.0132,-0.01,-0.0101,-0.017,-0.0176,-0.0182,-0.0203,-0.0205,-0.0208,-0.021,-0.0331,-0.0333,-0.0334,0,0,0,0,0,0,0.004,0.0034,-0.0031,-0.001,-0.0019,-0.0057,-0.0067,-0.0074,-0.0098,-0.0129,-0.0136,-0.0115,-0.017,-0.0178,-0.022,-0.0206,-0.0209,-0.0212,-0.0329,-0.0331,-0.0333,-0.0256,0,0,0,0,0,0,0.0042,0.0035,0.0026,-0.0009,-0.002,-0.006,-0.0068,-0.0076,-0.01,-0.0102,-0.0145,-0.0151,-0.017,-0.0215,-0.0223,-0.0211,-0.0215,-0.0327,-0.033,-0.0333,-0.0257,-0.0256,-0.0254,0,0,0,0,0,0.0045,0.0032,0.0026,0.0019,-0.0029,-0.006,-0.0069,-0.0096,-0.0101,-0.0115,-0.0148,-0.015,-0.0237,-0.0219,-0.0228,-0.0216,-0.0326,-0.0329,-0.0333,-0.0258,-0.0256,-0.0254,0,0,0,0,0,0,0.0061,0.0026,0.0019,-0.0002,-0.0027,-0.0065,-0.0078,-0.0098,-0.0137,-0.0132,-0.0168,-0.0177,-0.0211,-0.0238,-0.0217,-0.0267,-0.0282,-0.0287,-0.0223,-0.0221,-0.022,-0.0163,-0.0217,0,0,0,0,0,0.006,0.0035,0.001,-0.001,-0.0014,-0.0047,-0.0065,-0.0077,-0.0111,-0.0127,-0.016,-0.0197,-0.0233,-0.0245,-0.0286,-0.0309,-0.0299,-0.0313,-0.0312,-0.031,-0.0274,-0.0268,-0.026,-0.0345,-0.0345,-0.0345,0,0,0.0066,0.0038,0.0028,-0.0009,-0.0026,-0.0021,-0.0057,-0.0073,-0.007,-0.0128,-0.0144,-0.0196,-0.0245,-0.0272,-0.0288,-0.0287,-0.0284,-0.0314,-0.0311,-0.0276,-0.027,-0.0261,-0.0253,-0.0347,-0.0346,-0.0346,0,0,0.0076,0.0041,0.004,0.0025,0.0004,-0.0014,-0.0016,-0.0048,-0.0063,-0.0094,-0.0133,-0.0173,-0.0236,-0.0255,-0.0275,-0.0294,-0.0284,-0.0322,-0.025,-0.0245,-0.0236,-0.0228,-0.0199,-0.0189,-0.031,-0.031,-0.0309,0,0.0091,0.0085,0.0034,0.0041,0.0043,-0.0002,0.0023,-0.0004,-0.005,-0.0047,-0.0088,-0.0162,-0.0217,-0.0219,-0.0236,-0.0281,-0.0271,-0.0243,-0.0236,-0.0228,-0.0221,-0.0193,-0.0183,-0.0306,-0.0307,-0.0307,-0.0307,0,0.0112,0.0116,0.0116,0.0113,0.0099,0.0108,0.0085,0.0075,0.0045,0.0024,-0.0001,-0.0083,-0.0116,-0.0156,-0.0204,-0.0186,-0.0192,-0.0237,-0.0221,-0.0206,-0.018,-0.017,-0.0301,-0.0303,-0.0304,-0.0304,0,0,0.0145,0.0138,0.0144,0.0173,0.0147,0.0152,0.0159,0.0165,0.0201,0.0127,0.0166,0.0061,0.002,-0.0007,-0.0074,-0.0078,-0.0047,-0.0131,-0.0132,-0.0066,-0.0007,-0.0027,-0.0019,-0.0085,-0.0084,-0.0082,-0.0004,0,0.0194,0.0237,0.0208,0.0264,0.03,0.0269,0.0286,0.0282,0.0261,0.028,0.0209,0.0198,0.0077,0.0067,0.0038,-0.0023,-0.0019,-0.0061,-0.0061,-0.006,-0.005,-0.0008,-0.0017,0.005,0.0005,0.0006,0.0008,0,0.0245,0.0267,0.0334,0.0378,0.0392,0.0415,0.0463,0.0471,0.0476,0.0463,0.0439,0.0375,0.0346,0.0238,0.0178,0.0158,0.0087,0.0037,0.0038,0.001,-0.0062,0.0021,0.0069,-0.0112,0.0022,0.0021,0.002,0,0.032,0.0365,0.0425,0.0437,0.0469,0.0507,0.0527,0.054,0.0585,0.0595,0.0641,0.0562,0.057,0.0455,0.0311,0.0254,0.027,0.0174,0.0103,0.0102,0.0092,0.0086,-0.0001,0.0156,0.0156,0.0156,0.0156,0,0.0391,0.0443,0.0477,0.0515,0.061,0.0599,0.0702,0.0709,0.0762,0.0863,0.0749,0.083,0.0626,0.0587,0.0414,0.0311,0.0348,0.0152,0.0129,0.0114,0.0109,-0.0053,-0.0158,0.0159,0.0158,0.0158,0.0157,0,0.046,0.0479,0.0559,0.062,0.0651,0.072,0.0822,0.0905,0.0935,0.1075,0.1091,0.1068,0.1023,0.0822,0.0679,0.0487,0.0261,0.0307,0.0314,0.0288,0.0008,-0.0092,-0.0167,-0.0233,0.0241,0.0241,0.0241,0,0.0494,0.0542,0.0641,0.0705,0.0739,0.0845,0.0933,0.0987,0.109,0.1243,0.1336,0.1339,0.1378,0.1157,0.0814,0.0546,0.0338,0.0342,0.0206,0.0027,-0.0101,-0.0187,-0.0244,0.0227,0.0227,0.0227,0.0227,0,0.0553,0.0587,0.0651,0.0793,0.09,0.1031,0.1166,0.128,0.1389,0.1542,0.1744,0.1799,0.1587,0.1315,0.091,0.0692,0.0207,0.0332,0.0146,-0.0104,-0.0197,-0.0283,0.0151,0.0227,0.0227,0.0227,0.0227,0.0227,0.0593,0.0648,0.0742,0.0876,0.1011,0.1202,0.134,0.1522,0.1745,0.1999,0.2039,0.2164,0.1718,0.1171,0.0857,0.0233,0.0233,0.0016,-0.0078,-0.0139,-0.0245,0.0202,0.0236,0.0236,0.0236,0.0236,0.0236,0,0.065,0.0708,0.0824,0.0995,0.116,0.1229,0.1485,0.1658,0.1964,0.2196,0.239,0.2211,0.169,0.1105,0.0269,-0.013,-0.0285,-0.0341,-0.048,-0.0511,-0.0108,-0.0155,-0.0203,-0.0203,-0.0202,-0.0202,-0.0202,-0.0202,0.0687,0.0786,0.0841,0.1088,0.1224,0.147,0.1634,0.192,0.2129,0.2422,0.2483,0.249,0.1998,0.0594,-0.0332,-0.0522,-0.0804,-0.0857,-0.097,-0.0737,-0.0712,-0.0689,-0.0759,-0.0933,-0.0934,-0.1341,-0.1345,-0.1349]}],[{"header":{"parameterUnit":"m.s-1","parameterCategory":2,"la1":30.2991,"la2":30.254,"lo1":-89.0895,"lo2":-89.0444,"dy":0.0017,"dx":0.0017,"nx":28,"ny":28,"refTime":"2025-09-03T21:00:00:Z","depth":"2","parameterNumber":2,"parameterNumberName":"U-component_of_CURRENTS"},"data":[0,0,0,0,0,0,0,0,0,0,0,0,0,0,0,0,0,0,0,0,0,0,0,0,0,0,0,0,0,0,0,0,0,0,0,0,0,0,0,0,0,0,0,0,0,0,0,0,0,0,0,0,0,0,0,0,0,0,0.2712,0.2712,0,0.2727,0.2727,0.2727,0.2757,0.2757,0.2758,0.2759,0.2747,0.2746,0.2745,0,0,0,0,0,0,0,0,0,0,0,0,0,0.2734,0.2733,0.2712,0.2712,0.2712,0.2726,0.2727,0.2727,0.2757,0.2757,0.2758,0.2759,0.2747,0.2746,0.2745,0,0,0,0,0,0,0,0,0,0,0,0,0,0.2734,0.2733,0.2712,0.2729,0.273,0.2726,0.2727,0.2727,0.2757,0.2757,0.2758,0.2759,0.2747,0.2746,0.2745,0.272,0,0,0.2741,0.274,0,0,0,0,0,0,0,0,0.2734,0.2734,0.2726,0.2727,0.2729,0.274,0.273,0.2723,0.2756,0.2747,0.2759,0.276,0.2741,0.2741,0.2742,0.272,0.2719,0.2741,0.274,0.274,0.2739,0,0,0,0,0,0,0,0.2734,0.2733,0.2718,0.2726,0.2728,0.2744,0.2744,0.2729,0.2739,0.2748,0.275,0.2751,0.2742,0.2744,0.2742,0.2719,0.2741,0.274,0.2739,0.2738,0.2806,0.2808,0,0,0,0,0,0,0.2729,0.2733,0.2718,0.2718,0.2733,0.2742,0.2743,0.2736,0.274,0.2741,0.275,0.2752,0.2745,0.2744,0.2742,0.2841,0.274,0.2738,0.2738,0.2803,0.2806,0.2809,0,0,0,0,0,0,0.273,0.2727,0.2717,0.2727,0.2726,0.2741,0.2733,0.2736,0.2743,0.2742,0.2743,0.2754,0.2746,0.2744,0.2756,0.2836,0.2738,0.2737,0.28,0.2804,0.2808,0.2958,0,0,0,0,0,0,0.273,0.2727,0.2724,0.2726,0.2725,0.2715,0.2732,0.2736,0.2741,0.2744,0.2745,0.2745,0.2746,0.2758,0.2754,0.2833,0.2736,0.2797,0.2802,0.2807,0.295,0.2966,0.298,0,0,0,0,0,0.2731,0.2711,0.2724,0.2722,0.2719,0.2715,0.2716,0.273,0.2741,0.274,0.2761,0.2745,0.2787,0.2758,0.2753,0.2834,0.2795,0.2801,0.2806,0.2943,0.2963,0.298,0,0,0,0,0,0,0.2705,0.2713,0.2726,0.2708,0.2715,0.272,0.273,0.2728,0.2742,0.2766,0.2754,0.2755,0.2808,0.2782,0.275,0.2868,0.2797,0.2802,0.2903,0.2921,0.2936,0.2934,0.2735,0,0,0,0,0,0.2702,0.2691,0.2707,0.2687,0.2711,0.2722,0.2724,0.2739,0.2749,0.2757,0.2757,0.2782,0.2826,0.2839,0.2855,0.2892,0.2889,0.2947,0.2963,0.2976,0.2972,0.3052,0.3075,0.2828,0.2828,0.2828,0,0,0.2704,0.2685,0.2694,0.2682,0.2707,0.2758,0.2727,0.2747,0.2784,0.2752,0.2803,0.2824,0.2844,0.2917,0.2939,0.2906,0.3046,0.2983,0.2995,0.2983,0.3061,0.3085,0.3106,0.2832,0.2831,0.283,0,0,0.269,0.2683,0.2696,0.2715,0.274,0.2768,0.2775,0.28,0.2812,0.2856,0.2873,0.2926,0.2959,0.3007,0.3036,0.313,0.3123,0.3152,0.3233,0.3314,0.3335,0.3353,0.3389,0.341,0.3165,0.3165,0.3165,0,0.2692,0.27,0.2696,0.2722,0.2756,0.2782,0.2839,0.286,0.2877,0.2895,0.2895,0.3018,0.3014,0.3139,0.3182,0.3169,0.3198,0.3167,0.3336,0.3354,0.337,0.3402,0.3423,0.3173,0.3172,0.3171,0.317,0,0.2698,0.2736,0.2748,0.281,0.2841,0.2883,0.2939,0.2981,0.3016,0.3029,0.3132,0.3166,0.3243,0.327,0.3254,0.3389,0.3368,0.3347,0.3292,0.3405,0.3431,0.345,0.3184,0.3181,0.3179,0.3177,0,0,0.2673,0.2742,0.2762,0.2801,0.2896,0.291,0.3024,0.3097,0.3158,0.3217,0.3291,0.3396,0.3416,0.3448,0.3468,0.3526,0.3657,0.3491,0.3492,0.353,0.3826,0.3685,0.3691,0.3687,0.3691,0.3694,0.38,0,0.2703,0.2751,0.2792,0.2894,0.2958,0.3036,0.3107,0.3175,0.3256,0.3325,0.34,0.3479,0.3488,0.3551,0.3626,0.3635,0.3713,0.3628,0.3704,0.3705,0.3571,0.371,0.3426,0.3486,0.3818,0.3821,0.3824,0,0.2742,0.2758,0.2841,0.2929,0.2963,0.3025,0.317,0.323,0.3356,0.3413,0.3563,0.361,0.3735,0.3707,0.3864,0.382,0.3841,0.3845,0.385,0.3672,0.36,0.3425,0.3507,0.3854,0.3852,0.385,0.3847,0,0.2724,0.2816,0.286,0.2895,0.2995,0.3049,0.3117,0.3256,0.333,0.3483,0.3599,0.3732,0.3836,0.3911,0.3962,0.3931,0.4088,0.4043,0.3948,0.3937,0.3679,0.3638,0.416,0.416,0.4159,0.4159,0.4159,0,0.2744,0.2795,0.2845,0.2869,0.2925,0.3005,0.3106,0.321,0.3374,0.3452,0.3639,0.3762,0.39,0.4015,0.4017,0.4051,0.4164,0.3982,0.3972,0.3721,0.3684,0.3975,0.3952,0.4163,0.4162,0.4161,0.4161,0,0.2736,0.2776,0.282,0.2891,0.2922,0.2953,0.3106,0.3183,0.3369,0.3515,0.3581,0.3823,0.3954,0.4086,0.4171,0.4128,0.4143,0.4126,0.3799,0.3747,0.3918,0.3901,0.4026,0.4022,0.4019,0.4016,0.4014,0,0.2732,0.2755,0.2806,0.2831,0.2866,0.2935,0.2995,0.3158,0.3253,0.3516,0.3569,0.3801,0.3884,0.402,0.3988,0.4012,0.4114,0.374,0.361,0.3935,0.3913,0.3902,0.389,0.3339,0.3331,0.3325,0.332,0,0.2692,0.2703,0.2712,0.2793,0.2842,0.2889,0.2986,0.3042,0.3205,0.3351,0.3487,0.3575,0.3743,0.3628,0.3695,0.365,0.3704,0.3609,0.4089,0.3399,0.3291,0.3268,0.3279,0.3265,0.3271,0.3275,0.3278,0.328,0.265,0.2635,0.2657,0.2732,0.2777,0.2791,0.2797,0.2883,0.2954,0.3069,0.3226,0.3274,0.3351,0.3286,0.3199,0.3162,0.3395,0.3247,0.3265,0.3291,0.3174,0.3065,0.2974,0.2977,0.2981,0.2983,0.2986,0,0.2504,0.256,0.2613,0.265,0.2636,0.2733,0.275,0.2694,0.2664,0.2795,0.2874,0.2691,0.2647,0.2756,0.2606,0.2589,0.2559,0.2492,0.2442,0.25,0.2551,0.2395,0.1989,0.1986,0.1982,0.1979,0,0,0.2471,0.2428,0.2452,0.2441,0.2517,0.2475,0.2438,0.2363,0.238,0.2299,0.232,0.2538,0.2668,0.2294,0.2255,0.21,0.2277,0.2017,0.2826,0.2827,0.2873,0.3006,0.2833,0,0,0,0,0]},{"header":{"parameterUnit":"m.s-1","parameterCategory":2,"la1":30.2991,"la2":30.254,"lo1":-89.0895,"lo2":-89.0444,"dy":0.0017,"dx":0.0017,"nx":28,"ny":28,"refTime":"2025-09-03T21:00:00:Z","depth":"2","parameterNumber":3,"parameterNumberName":"V-component_of_CURRENTS"},"data":[0,0,0,0,0,0,0,0,0,0,0,0,0,0,0,0,0,0,0,0,0,0,0,0,0,0,0,0,0,0,0,0,0,0,0,0,0,0,0,0,0,0,0,0,0,0,0,0,0,0,0,0,0,0,0,0,0,0,0.013,0.013,0,0.007,0.0069,0.0068,0.0004,0.0004,0.0004,0.0003,-0.0089,-0.0091,-0.0093,0,0,0,0,0,0,0,0,0,0,0,0,0,0.0151,0.0151,0.013,0.013,0.0129,0.007,0.0069,0.0067,0.0004,0.0004,0.0003,0.0003,-0.0089,-0.0091,-0.0094,0,0,0,0,0,0,0,0,0,0,0,0,0,0.0117,0.0151,0.013,0.0095,0.0091,0.007,0.0069,0.0067,0.0004,0.0004,0.0003,0.0003,-0.0088,-0.0091,-0.0094,-0.0102,0,0,-0.0104,-0.0105,0,0,0,0,0,0,0,0,0.0119,0.0115,0.01,0.0097,0.0093,0.0049,0.0043,0.0011,0.0005,0.0032,0.0003,0.0002,-0.0042,-0.0049,-0.0066,-0.0106,-0.011,-0.0104,-0.0106,-0.0107,-0.0108,0,0,0,0,0,0,0,0.0121,0.0117,0.01,0.01,0.0096,0.0069,0.0063,0.0036,-0.0006,0.0029,0.0026,0.0028,-0.0045,-0.0063,-0.0069,-0.0111,-0.0104,-0.0107,-0.0108,-0.011,-0.0166,-0.0165,0,0,0,0,0,0,0.0142,0.012,0.0103,0.0099,0.0111,0.007,0.0063,0.0059,-0.0005,-0.0014,0.0029,0.0026,-0.0058,-0.0065,-0.0072,-0.0067,-0.0107,-0.011,-0.0112,-0.0166,-0.0166,-0.0165,0,0,0,0,0,0,0.0143,0.0141,0.0105,0.0113,0.0107,0.0071,0.0067,0.0059,0.0047,-0.0004,-0.0015,0.0027,-0.0058,-0.0068,-0.0087,-0.0072,-0.0111,-0.0114,-0.0167,-0.0166,-0.0166,-0.0069,0,0,0,0,0,0,0.0143,0.0141,0.0141,0.0114,0.0108,0.0112,0.0068,0.0058,0.0052,0.0047,-0.0009,-0.0019,-0.0059,-0.0082,-0.009,-0.0077,-0.0117,-0.0167,-0.0166,-0.0166,-0.0072,-0.0065,-0.0059,0,0,0,0,0,0.0144,0.0155,0.0141,0.0139,0.011,0.0114,0.0108,0.0076,0.0053,0.006,0.0017,-0.0017,-0.0084,-0.0084,-0.0094,-0.0081,-0.0168,-0.0167,-0.0166,-0.0076,-0.0066,-0.0059,0,0,0,0,0,0,0.0164,0.0149,0.0133,0.0138,0.0135,0.0105,0.0101,0.0087,0.0057,0.0046,-0.0008,-0.0019,-0.0037,-0.007,-0.0069,-0.0097,-0.0133,-0.0134,-0.0061,-0.0053,-0.0046,-0.0033,-0.0119,0,0,0,0,0,0.0171,0.0176,0.016,0.0168,0.016,0.0132,0.0127,0.0114,0.0089,0.0074,0.0035,-0.001,-0.0042,-0.0053,-0.0093,-0.0098,-0.0134,-0.0099,-0.0092,-0.0086,-0.0083,-0.0137,-0.0135,-0.0162,-0.0162,-0.0162,0,0,0.0177,0.0176,0.0174,0.0173,0.0154,0.0166,0.0126,0.0129,0.0148,0.007,0.0065,0.0011,-0.004,-0.0055,-0.0065,-0.0077,-0.0089,-0.0085,-0.0078,-0.0079,-0.0136,-0.0133,-0.0131,-0.0162,-0.0162,-0.0162,0,0,0.021,0.0192,0.0205,0.0206,0.0204,0.0195,0.0205,0.018,0.0173,0.0169,0.0111,0.0075,0.0027,-0.0005,-0.0026,-0.0001,-0.0057,-0.002,0.0035,-0.0017,-0.0015,-0.0014,-0.002,-0.002,-0.0008,-0.0008,-0.0008,0,0.0215,0.0238,0.0213,0.0232,0.0247,0.0216,0.0247,0.0238,0.0217,0.0214,0.0181,0.0085,0.0053,0.0029,0.004,0.0017,-0.0017,0.0012,-0.0007,-0.0007,-0.0007,-0.0015,-0.0016,-0.0003,-0.0004,-0.0004,-0.0005,0,0.0267,0.0277,0.0286,0.0302,0.0317,0.0339,0.0335,0.0336,0.0318,0.0301,0.0261,0.0189,0.013,0.0118,0.0092,0.0072,0.0051,0.0004,-0.0023,0.0002,-0.0007,-0.0011,0.0004,0.0002,0.0001,-0.0001,0,0,0.0286,0.0317,0.0317,0.0343,0.0361,0.0383,0.0412,0.0431,0.0443,0.0387,0.039,0.0318,0.0247,0.0216,0.0157,0.0125,0.0118,0.0074,0.0069,0.0078,0.0027,-0.0006,-0.0013,0.0055,0.0054,0.0053,0.0036,0,0.0331,0.0391,0.0402,0.0463,0.0487,0.0485,0.0526,0.0537,0.0514,0.0504,0.042,0.0385,0.0294,0.0261,0.0207,0.0143,0.0106,0.0129,-0.0008,-0.0011,-0.0036,-0.0019,0.0008,-0.0009,0.0032,0.0031,0.0031,0,0.0373,0.0413,0.0483,0.0549,0.0561,0.06,0.0646,0.0677,0.0655,0.0627,0.0543,0.0471,0.0414,0.0328,0.0198,0.021,0.0124,0.0066,0.0062,-0.0009,-0.0052,-0.0037,-0.0018,0.0024,0.0025,0.0025,0.0026,0,0.0405,0.0469,0.0539,0.0558,0.0622,0.066,0.07,0.0705,0.0745,0.0692,0.07,0.0567,0.0534,0.0383,0.0249,0.0221,0.0117,0.0061,-0.0053,-0.0055,-0.0078,-0.0081,-0.0045,-0.0045,-0.0045,-0.0045,-0.0045,0,0.0452,0.0498,0.0556,0.0589,0.0681,0.0708,0.0791,0.0789,0.0814,0.0877,0.0754,0.0756,0.0542,0.0454,0.0294,0.0123,0.0138,-0.0038,-0.0071,-0.004,-0.004,-0.0062,-0.0063,-0.0046,-0.0046,-0.0046,-0.0045,0,0.047,0.0506,0.0583,0.0663,0.0694,0.0757,0.0871,0.0928,0.0932,0.1006,0.1004,0.092,0.0798,0.0591,0.0387,0.021,0.0038,-0.0033,0.0041,0.0015,-0.0105,-0.0101,-0.0159,-0.016,-0.0161,-0.0163,-0.0163,0,0.0489,0.0524,0.063,0.0685,0.0724,0.0823,0.0908,0.0965,0.1041,0.1113,0.1166,0.1079,0.1017,0.0705,0.0392,0.0104,0.0053,-0.007,-0.014,-0.0094,-0.0121,-0.0115,-0.011,-0.0109,-0.0109,-0.0109,-0.011,0,0.0518,0.0551,0.0614,0.0731,0.0826,0.0952,0.1075,0.1169,0.1267,0.1325,0.1405,0.1367,0.1081,0.0781,0.0371,0.0167,-0.0029,-0.0088,-0.0062,-0.0095,-0.0053,-0.0077,-0.0072,-0.0112,-0.0112,-0.0112,-0.0112,-0.0112,0.0536,0.0584,0.0673,0.0785,0.0903,0.1079,0.12,0.1342,0.1486,0.1605,0.157,0.1515,0.1183,0.0648,0.0309,-0.0046,-0.0044,-0.0185,-0.0181,-0.0178,-0.018,-0.0145,-0.0218,-0.0218,-0.0218,-0.0219,-0.0219,0,0.06,0.0637,0.0731,0.0882,0.1027,0.1089,0.1317,0.1438,0.1624,0.17,0.1731,0.1408,0.107,0.0705,0.018,-0.0151,-0.0175,-0.0256,-0.0206,-0.0201,-0.0197,-0.0199,-0.0243,-0.0243,-0.0244,-0.0245,0,0,0.0615,0.0718,0.0768,0.0975,0.108,0.129,0.1434,0.1594,0.1699,0.1755,0.172,0.1623,0.1184,0.0799,0.0362,0.007,0.0006,0.0003,0.0055,0.017,0.0178,-0.0125,-0.012,0,0,0,0,0]}],[{"header":{"parameterUnit":"m.s-1","parameterCategory":2,"la1":30.2991,"la2":30.254,"lo1":-89.0895,"lo2":-89.0444,"dy":0.0017,"dx":0.0017,"nx":28,"ny":28,"refTime":"2025-09-03T21:00:00:Z","depth":"4","parameterNumber":2,"parameterNumberName":"U-component_of_CURRENTS"},"data":[0,0,0,0,0,0,0,0,0,0,0,0,0,0,0,0,0,0,0,0,0,0,0,0,0,0,0,0,0,0,0,0,0,0,0,0,0,0,0,0,0,0,0,0,0,0,0,0,0,0,0,0,0,0,0,0,0,0,0.1374,0.1375,0,0.1421,0.1422,0.1423,0.1502,0.1503,0.1504,0.1506,0.1572,0.1573,0.1573,0,0,0,0,0,0,0,0,0,0,0,0,0,0.1299,0.13,0.1374,0.1375,0.1375,0.1421,0.1422,0.1423,0.1502,0.1503,0.1505,0.1506,0.1572,0.1573,0.1573,0,0,0,0,0,0,0,0,0,0,0,0,0,0.1339,0.1301,0.1374,0.1419,0.1423,0.1421,0.1422,0.1423,0.1501,0.1503,0.1505,0.1507,0.1572,0.1573,0.1573,0.154,0,0,0.1576,0.1576,0,0,0,0,0,0,0,0,0.1337,0.1342,0.1412,0.1415,0.142,0.1456,0.142,0.1463,0.1501,0.1474,0.1506,0.1508,0.1532,0.1537,0.1544,0.1543,0.1546,0.1576,0.1577,0.1577,0.1577,0,0,0,0,0,0,0,0.1334,0.134,0.1395,0.1412,0.1417,0.1417,0.1426,0.1428,0.1493,0.1476,0.1482,0.1483,0.1535,0.1543,0.1546,0.1547,0.1576,0.1577,0.1577,0.1578,0.1647,0.1648,0,0,0,0,0,0,0.1325,0.1338,0.1394,0.1396,0.138,0.1417,0.1427,0.1444,0.1493,0.1502,0.1481,0.1486,0.154,0.1545,0.1548,0.1622,0.1577,0.1578,0.1578,0.1646,0.1647,0.1649,0,0,0,0,0,0,0.1324,0.133,0.1392,0.1365,0.1373,0.1417,0.1435,0.1444,0.1484,0.1496,0.1506,0.1516,0.1542,0.1547,0.1589,0.1621,0.1578,0.1579,0.1644,0.1646,0.1648,0.1699,0,0,0,0,0,0,0.1321,0.133,0.1352,0.1365,0.1374,0.1412,0.1433,0.1444,0.1479,0.1487,0.1528,0.1535,0.1544,0.1587,0.1589,0.1622,0.158,0.1643,0.1645,0.1648,0.1695,0.1702,0.1708,0,0,0,0,0,0.1319,0.1329,0.1353,0.136,0.14,0.1412,0.1418,0.1455,0.1479,0.1499,0.1535,0.1535,0.1605,0.1589,0.1591,0.1624,0.1641,0.1644,0.1647,0.1693,0.1701,0.1708,0,0,0,0,0,0,0.1314,0.1338,0.1365,0.1387,0.1411,0.1426,0.1448,0.1466,0.1509,0.1532,0.1546,0.1555,0.1603,0.1603,0.1585,0.1653,0.1625,0.1629,0.1659,0.1666,0.1673,0.1685,0.158,0,0,0,0,0,0.132,0.1332,0.1362,0.138,0.1402,0.1431,0.1446,0.1472,0.15,0.1524,0.1546,0.1578,0.1609,0.1631,0.1649,0.1679,0.1698,0.1704,0.171,0.1716,0.1728,0.1791,0.1805,0.1659,0.1659,0.1659,0,0,0.1309,0.1334,0.1336,0.1379,0.1408,0.1431,0.1448,0.1481,0.151,0.152,0.1574,0.1597,0.1621,0.1665,0.1687,0.1676,0.1767,0.172,0.1724,0.1734,0.1796,0.181,0.1823,0.1661,0.166,0.166,0,0,0.1298,0.1339,0.1352,0.1383,0.1433,0.1446,0.1461,0.1497,0.1538,0.1577,0.1603,0.1651,0.1679,0.1716,0.1735,0.1783,0.1795,0.1789,0.1836,0.1897,0.191,0.1922,0.1961,0.1976,0.1796,0.1796,0.1796,0,0.13,0.1328,0.1356,0.1393,0.1421,0.1455,0.1485,0.1518,0.156,0.16,0.1605,0.1688,0.1707,0.1778,0.1805,0.18,0.183,0.1805,0.1907,0.1919,0.1929,0.1967,0.1983,0.1799,0.1799,0.1799,0.1798,0,0.1293,0.1341,0.1357,0.1413,0.144,0.1473,0.152,0.1556,0.1597,0.1637,0.1722,0.1755,0.1814,0.1824,0.1833,0.1922,0.1917,0.1904,0.1888,0.1947,0.1983,0.1998,0.1803,0.1802,0.1801,0.1801,0,0,0.1249,0.1336,0.1349,0.1399,0.1465,0.1485,0.1536,0.16,0.1654,0.1709,0.179,0.1851,0.1893,0.1918,0.194,0.1991,0.2092,0.199,0.1991,0.203,0.2225,0.2082,0.2085,0.2105,0.2108,0.211,0.2217,0,0.1253,0.1322,0.1355,0.1421,0.1471,0.1521,0.1564,0.1629,0.169,0.1772,0.1848,0.1931,0.1924,0.1974,0.2028,0.2084,0.2136,0.2063,0.2161,0.2164,0.2031,0.2099,0.212,0.2229,0.2232,0.2235,0.2237,0,0.1248,0.1304,0.1375,0.1467,0.1493,0.1525,0.1615,0.1664,0.178,0.1839,0.1936,0.2,0.2113,0.2087,0.222,0.218,0.2215,0.2238,0.2243,0.2103,0.2049,0.2158,0.2264,0.2262,0.226,0.2258,0.2256,0,0.1224,0.1317,0.1379,0.1413,0.1511,0.1554,0.1599,0.1697,0.1765,0.1907,0.1978,0.21,0.219,0.2256,0.2325,0.2294,0.245,0.2408,0.2304,0.2294,0.2368,0.2354,0.2494,0.2494,0.2494,0.2494,0.2493,0,0.1218,0.1275,0.1382,0.1427,0.1489,0.1568,0.1649,0.1707,0.183,0.1918,0.2034,0.2115,0.2242,0.2342,0.2373,0.2393,0.2499,0.2328,0.232,0.2384,0.2372,0.2378,0.2363,0.2498,0.2497,0.2496,0.2495,0,0.1178,0.1261,0.1339,0.1452,0.1491,0.1538,0.1659,0.1714,0.1844,0.1962,0.2023,0.2178,0.23,0.2395,0.2512,0.2446,0.2481,0.2457,0.2534,0.2526,0.2268,0.2255,0.2345,0.2341,0.2337,0.2334,0.2332,0,0.1145,0.1196,0.1333,0.1372,0.1427,0.1517,0.1571,0.1706,0.1767,0.1976,0.2022,0.2202,0.2289,0.2351,0.2439,0.2492,0.2457,0.2446,0.2334,0.2273,0.2258,0.2249,0.2241,0.2327,0.2326,0.2325,0.2324,0,0.1072,0.1147,0.121,0.1299,0.1371,0.1438,0.1533,0.1576,0.1738,0.1883,0.1992,0.2071,0.2197,0.2274,0.2338,0.2361,0.2436,0.2409,0.2415,0.231,0.2253,0.2238,0.2234,0.2312,0.2314,0.2315,0.2316,0,0.0999,0.1014,0.1113,0.1183,0.1277,0.1328,0.1396,0.1485,0.1578,0.181,0.1844,0.2032,0.2184,0.2208,0.2267,0.2284,0.2233,0.2137,0.2155,0.2169,0.2058,0.1956,0.1934,0,0,0,0,0,0.0906,0.0918,0.0974,0.1056,0.1159,0.1214,0.135,0.1427,0.1604,0.1641,0.1741,0.1854,0.1953,0.2042,0.2025,0.2165,0.2225,0.2129,0.2118,0.2247,0.2261,0.2143,0,0,0,0,0,0,0.0841,0.0879,0.0925,0.0952,0.0987,0.1078,0.1163,0.1284,0.1317,0.1508,0.1583,0.1724,0.1854,0.195,0.1984,0.2009,0.1959,0.2244,0.2239,0.224,0.2252,0.2263,0.2147,0,0,0,0,0]},{"header":{"parameterUnit":"m.s-1","parameterCategory":2,"la1":30.2991,"la2":30.254,"lo1":-89.0895,"lo2":-89.0444,"dy":0.0017,"dx":0.0017,"nx":28,"ny":28,"refTime":"2025-09-03T21:00:00:Z","depth":"4","parameterNumber":3,"parameterNumberName":"V-component_of_CURRENTS"},"data":[0,0,0,0,0,0,0,0,0,0,0,0,0,0,0,0,0,0,0,0,0,0,0,0,0,0,0,0,0,0,0,0,0,0,0,0,0,0,0,0,0,0,0,0,0,0,0,0,0,0,0,0,0,0,0,0,0,0,0.0245,0.0245,0,0.0212,0.0211,0.021,0.0167,0.0167,0.0166,0.0166,0.0107,0.0106,0.0105,0,0,0,0,0,0,0,0,0,0,0,0,0,0.026,0.026,0.0245,0.0245,0.0245,0.0212,0.0211,0.021,0.0167,0.0167,0.0166,0.0166,0.0107,0.0106,0.0105,0,0,0,0,0,0,0,0,0,0,0,0,0,0.024,0.026,0.0245,0.0222,0.0219,0.0212,0.0211,0.021,0.0167,0.0167,0.0166,0.0165,0.0108,0.0106,0.0105,0.0107,0,0,0.0099,0.0099,0,0,0,0,0,0,0,0,0.0241,0.0239,0.0225,0.0223,0.0221,0.0195,0.0195,0.0175,0.0167,0.0184,0.0166,0.0165,0.0137,0.0133,0.0124,0.0104,0.0102,0.0099,0.0098,0.0097,0.0097,0,0,0,0,0,0,0,0.0243,0.0241,0.0229,0.0225,0.0222,0.0209,0.0205,0.0191,0.0162,0.0182,0.018,0.0181,0.0135,0.0126,0.0122,0.0101,0.0099,0.0098,0.0097,0.0096,0.0091,0.0092,0,0,0,0,0,0,0.0254,0.0242,0.023,0.0228,0.0233,0.0209,0.0205,0.0202,0.0162,0.0157,0.0182,0.0179,0.0129,0.0124,0.012,0.0137,0.0097,0.0096,0.0095,0.009,0.0091,0.0092,0,0,0,0,0,0,0.0255,0.0253,0.0232,0.0237,0.0233,0.021,0.0207,0.0202,0.0198,0.0163,0.0156,0.0184,0.0128,0.0122,0.012,0.0133,0.0095,0.0093,0.0089,0.0091,0.0092,0.016,0,0,0,0,0,0,0.0255,0.0253,0.0255,0.0238,0.0234,0.0237,0.0208,0.0202,0.02,0.0197,0.0162,0.0156,0.0127,0.0123,0.0118,0.013,0.0092,0.0088,0.009,0.0091,0.0157,0.0163,0.0169,0,0,0,0,0,0.0256,0.0266,0.0255,0.0254,0.0236,0.0238,0.0235,0.0214,0.0201,0.0206,0.0186,0.0157,0.013,0.0123,0.0117,0.0129,0.0087,0.0089,0.0091,0.0154,0.0162,0.0169,0,0,0,0,0,0,0.0264,0.0262,0.025,0.0255,0.0251,0.0232,0.0234,0.0223,0.0211,0.0207,0.0171,0.0164,0.0166,0.0142,0.0134,0.0133,0.0103,0.0104,0.0152,0.016,0.0166,0.0166,0.0091,0,0,0,0,0,0.027,0.0283,0.027,0.0276,0.0273,0.0255,0.0253,0.0244,0.0232,0.0225,0.0203,0.0182,0.017,0.0161,0.0146,0.0147,0.0099,0.015,0.0157,0.0163,0.0159,0.0101,0.0101,0.0099,0.0099,0.0099,0,0,0.028,0.0277,0.0286,0.0281,0.0271,0.028,0.0252,0.0258,0.027,0.0222,0.0228,0.0206,0.0177,0.0178,0.0176,0.0159,0.0139,0.0165,0.017,0.0163,0.0103,0.0103,0.0103,0.01,0.01,0.01,0,0,0.0307,0.0297,0.0316,0.0316,0.0313,0.0305,0.0312,0.03,0.0296,0.0305,0.0273,0.0259,0.0244,0.022,0.0208,0.0241,0.0178,0.024,0.0268,0.0212,0.0211,0.021,0.0152,0.0145,0.0239,0.024,0.024,0,0.031,0.0331,0.0322,0.0334,0.0341,0.0321,0.034,0.0338,0.0331,0.0328,0.0317,0.0285,0.0262,0.0253,0.0265,0.0255,0.021,0.0242,0.0219,0.0217,0.0214,0.0155,0.0146,0.0243,0.0243,0.0242,0.0242,0,0.0355,0.0364,0.0374,0.0386,0.0394,0.0408,0.0406,0.0413,0.0407,0.0394,0.0388,0.0354,0.033,0.0325,0.0306,0.0284,0.0254,0.0236,0.0198,0.0218,0.0155,0.0144,0.0248,0.0247,0.0246,0.0245,0,0,0.0365,0.0398,0.0401,0.0413,0.0422,0.0435,0.046,0.0467,0.0476,0.046,0.0458,0.0437,0.0404,0.0388,0.0356,0.031,0.0258,0.027,0.0266,0.0209,0.0127,0.0123,0.011,0.0233,0.0231,0.023,0.0091,0,0.0392,0.0434,0.0447,0.0486,0.05,0.0501,0.0527,0.0533,0.0525,0.0519,0.0476,0.0465,0.0433,0.0422,0.0372,0.0289,0.0234,0.0297,0.0118,0.0113,0.0103,0.01,0.0226,0.0083,0.008,0.0078,0.0077,0,0.0422,0.0446,0.0493,0.0531,0.0538,0.0567,0.0594,0.0616,0.0601,0.0593,0.0563,0.0521,0.0466,0.0434,0.0289,0.033,0.0234,0.0163,0.0155,0.0118,0.0089,0.0056,0.0058,0.0059,0.0061,0.0062,0.0063,0,0.043,0.0475,0.0517,0.0529,0.057,0.06,0.0627,0.0635,0.0659,0.0635,0.0635,0.0555,0.0518,0.0395,0.0257,0.0266,0.0081,0.0072,-0.0027,-0.0029,-0.0015,-0.0012,-0.0045,-0.0045,-0.0045,-0.0044,-0.0044,0,0.0444,0.0476,0.0528,0.0547,0.0605,0.0626,0.0684,0.0694,0.071,0.073,0.0673,0.0655,0.0504,0.0388,0.0256,0.0083,0.0074,-0.003,-0.0066,0.0019,0.0027,-0.0023,-0.0018,-0.005,-0.0049,-0.0047,-0.0047,0,0.0443,0.0475,0.0524,0.0583,0.061,0.0652,0.074,0.0778,0.0784,0.0807,0.0804,0.0716,0.0566,0.0402,0.0189,0.0087,-0.0079,-0.0143,-0.0044,-0.0072,-0.0155,-0.0145,-0.0266,-0.0268,-0.0269,-0.027,-0.0271,0,0.0454,0.0476,0.0551,0.0596,0.063,0.0707,0.0768,0.0812,0.0853,0.0841,0.0847,0.072,0.064,0.0342,0.0161,-0.01,-0.0132,-0.0222,-0.0182,-0.0155,-0.0179,-0.0167,-0.0156,-0.0272,-0.0273,-0.0273,-0.0273,0,0.0468,0.0492,0.0536,0.0625,0.0699,0.0781,0.0865,0.0898,0.094,0.0941,0.0882,0.0738,0.0562,0.034,0.0133,-0.0051,-0.0161,-0.0234,-0.0233,-0.0196,-0.0164,-0.0183,-0.0171,-0.0277,-0.0277,-0.0276,-0.0276,0,0.0486,0.0518,0.0581,0.0657,0.0749,0.0831,0.0877,0.0927,0.0964,0.0951,0.0919,0.0743,0.0637,0.0362,0.0172,-0.0009,-0.005,-0.0099,-0.0105,-0.0103,-0.0007,0.0062,-0.0021,0,0,0,0,0,0.0505,0.0545,0.0615,0.0702,0.079,0.0844,0.0934,0.0972,0.1003,0.0972,0.0953,0.0793,0.0516,0.0392,0.021,0.0139,-0.009,-0.0081,-0.0151,-0.0299,-0.0294,-0.0209,0,0,0,0,0,0,0.052,0.0587,0.0613,0.0723,0.0786,0.0892,0.0949,0.0971,0.0958,0.0953,0.0809,0.0744,0.0472,0.0616,0.0203,0.0147,0.0078,-0.0209,-0.0213,-0.0302,-0.0297,-0.0294,-0.0204,0,0,0,0,0]}]]